Weather History for Granite Falls, MN

Change the Weather History Date:

Tuesday, January 29, 2013

  Actual Average (KMVE) Record (KMVE)
Temperature  
Mean Temperature 26 °F -  
Max Temperature 31 °F 23 °F 50 °F (1990)
Min Temperature 21 °F 2 °F -30 °F (1951)
Degree Days  
Heating Degree Days 39    
Moisture  
Dew Point 23 °F    
Average Humidity 89    
Maximum Humidity 98    
Minimum Humidity 79    
Precipitation  
Precipitation 0.00 in - - ()
Sea Level Pressure  
Sea Level Pressure 29.71 in    
Wind  
Wind Speed 12 mph (NW)    
Max Wind Speed 23 mph    
Max Gust Speed 32 mph    
Visibility 6 miles    
Events Snow    
Averages and records for this station are not official NWS values.
T = Trace of Precipitation, MM = Missing Value Source: NWS Daily Summary

Daily Weather History Graph

Daily Weather History Graph

Search for Another Location

Airport:

Trip Planner

Search our weather history database for the weather conditions in past years. The results will help you decide how hot, cold, wet, or windy it might be!

Date:

Astronomy

Jan. 29, 2013 Rise Set
Actual Time 7:44 AM CST 5:26 PM CST
Civil Twilight 7:13 AM CST 5:58 PM CST
Nautical Twilight 6:37 AM CST 6:33 PM CST
Astronomical Twilight 6:03 AM CST 7:07 PM CST
Moon 8:34 PM CST (1/29) 8:33 AM CST (1/29)
Length of Visible Light 10h 45m
Length of Day
9h 42m
Waning Gibbous, 93% of the Moon is Illuminated
Jan 29
Waning Gibbous
Feb 3
Last Quarter
Feb 10
New
Feb 17
First Quarter
Feb 25
Full

Hourly Weather History & Observations

Time (CST) Temp. Windchill Dew Point Humidity Pressure Visibility Wind Dir Wind Speed Gust Speed Precip Events Conditions
12:11 AM 31.1 °F 25.4 °F 30.2 °F 96% 29.62 in 2.0 mi NNW 5.8 mph - N/A   Overcast
12:31 AM 31.1 °F 27.7 °F 30.2 °F 96% 29.62 in 2.5 mi NNW 3.5 mph - N/A   Overcast
12:50 AM 31.1 °F 27.7 °F 30.2 °F 96% 29.62 in 3.0 mi NW 3.5 mph - N/A   Overcast
1:10 AM 31.1 °F 26.4 °F 30.2 °F 96% 29.60 in 2.0 mi NNW 4.6 mph - N/A   Overcast
1:31 AM 31.1 °F 21.9 °F 30.6 °F 98% 29.64 in 4.0 mi WNW 11.5 mph - N/A   Overcast
1:50 AM 31.1 °F 24.5 °F 30.4 °F 97% 29.61 in 2.5 mi NW 6.9 mph - N/A Snow Light Snow
2:10 AM 31.1 °F 23.7 °F 30.2 °F 96% 29.62 in 4.0 mi WNW 8.1 mph - N/A   Overcast
2:31 AM 31.1 °F 23.7 °F 30.2 °F 96% 29.61 in 3.0 mi NW 8.1 mph - N/A   Overcast
2:50 AM 30.7 °F 20.4 °F 29.7 °F 96% 29.62 in 5.0 mi WNW 13.8 mph - N/A   Overcast
3:11 AM 30.2 °F 20.8 °F 29.1 °F 96% 29.63 in 7.0 mi WNW 11.5 mph - N/A   Overcast
3:31 AM 29.1 °F 18.9 °F 27.7 °F 94% 29.62 in 10.0 mi WNW 12.7 mph - N/A   Overcast
3:51 AM 28.4 °F 18.0 °F 27.0 °F 94% 29.62 in 7.0 mi WNW 12.7 mph - N/A   Overcast
4:10 AM 28.0 °F 16.5 °F 26.2 °F 93% 29.62 in 5.0 mi WNW 15.0 mph - N/A   Overcast
4:31 AM 27.9 °F 17.3 °F 26.1 °F 93% 29.62 in 5.0 mi WNW 12.7 mph - N/A   Overcast
4:51 AM 27.7 °F 17.6 °F 25.9 °F 93% 29.60 in 5.0 mi NW 11.5 mph - N/A   Overcast
5:10 AM 27.7 °F 18.8 °F 26.2 °F 94% 29.60 in 5.0 mi NW 9.2 mph - N/A   Overcast
5:31 AM 27.7 °F 18.8 °F 26.2 °F 94% 29.61 in 5.0 mi WNW 9.2 mph - N/A   Overcast
5:50 AM 27.5 °F 16.8 °F 25.7 °F 93% 29.60 in 5.0 mi WNW 12.7 mph - N/A   Overcast
6:11 AM 27.1 °F 15.4 °F 25.3 °F 93% 29.61 in 5.0 mi WNW 15.0 mph - N/A   Overcast
6:30 AM 26.8 °F 14.5 °F 25.0 °F 93% 29.63 in 5.0 mi WNW 16.1 mph - N/A   Overcast
6:51 AM 26.6 °F 13.4 °F 24.8 °F 93% 29.65 in 5.0 mi WNW 18.4 mph - N/A   Overcast
7:11 AM 26.6 °F 14.3 °F 24.6 °F 92% 29.66 in 5.0 mi WNW 16.1 mph 24.2 mph N/A   Overcast
7:30 AM 26.6 °F 14.7 °F 24.4 °F 92% 29.66 in 5.0 mi NW 15.0 mph - N/A   Overcast
7:50 AM 26.6 °F 16.8 °F 24.4 °F 92% 29.67 in 4.0 mi NW 10.4 mph - N/A   Mostly Cloudy
8:10 AM 26.4 °F 15.5 °F 24.1 °F 91% 29.68 in 4.0 mi WNW 12.7 mph - N/A   Scattered Clouds
8:31 AM 26.4 °F 14.5 °F 24.1 °F 91% 29.66 in 4.0 mi NW 15.0 mph 18.4 mph N/A   Overcast
8:50 AM 26.2 °F 16.4 °F 24.1 °F 92% 29.65 in 4.0 mi NW 10.4 mph - N/A   Mostly Cloudy
9:11 AM 26.4 °F 14.5 °F 24.3 °F 92% 29.67 in 4.0 mi WNW 15.0 mph - N/A   Mostly Cloudy
9:30 AM 27.1 °F 15.9 °F 24.6 °F 90% 29.69 in 5.0 mi WNW 13.8 mph - N/A   Scattered Clouds
9:51 AM 27.9 °F 16.3 °F 24.6 °F 88% 29.71 in 7.0 mi WNW 15.0 mph - N/A   Clear
10:11 AM 28.4 °F 15.4 °F 24.8 °F 86% 29.69 in 7.0 mi WNW 19.6 mph - N/A   Mostly Cloudy
10:30 AM 28.0 °F 16.5 °F 24.6 °F 87% 29.70 in 7.0 mi WNW 15.0 mph - N/A   Mostly Cloudy
10:51 AM 27.9 °F 16.8 °F 24.4 °F 87% 29.71 in 7.0 mi NW 13.8 mph - N/A   Scattered Clouds
11:11 AM 28.2 °F 17.7 °F 24.6 °F 86% 29.73 in 7.0 mi WNW 12.7 mph - N/A   Clear
11:30 AM 28.4 °F 17.0 °F 24.6 °F 86% 29.73 in 7.0 mi WNW 15.0 mph - N/A   Clear
11:51 AM 28.2 °F 17.7 °F 24.3 °F 85% 29.73 in 7.0 mi WNW 12.7 mph - N/A   Clear
12:10 PM 28.4 °F 18.0 °F 24.6 °F 86% 29.71 in 7.0 mi WNW 12.7 mph - N/A   Clear
12:30 PM 28.4 °F 17.5 °F 24.3 °F 84% 29.71 in 7.0 mi WNW 13.8 mph - N/A   Clear
12:50 PM 28.4 °F 17.0 °F 23.9 °F 83% 29.71 in 7.0 mi WNW 15.0 mph - N/A   Clear
1:11 PM 28.4 °F 18.0 °F 24.1 °F 84% 29.71 in 7.0 mi WNW 12.7 mph - N/A   Scattered Clouds
1:30 PM 28.8 °F 17.5 °F 23.9 °F 82% 29.71 in 7.0 mi NW 15.0 mph - N/A   Scattered Clouds
1:51 PM 27.5 °F 16.3 °F 23.4 °F 84% 29.71 in 7.0 mi NW 13.8 mph - N/A   Mostly Cloudy
2:11 PM 26.2 °F 16.4 °F 22.3 °F 85% 29.73 in 7.0 mi WNW 10.4 mph - N/A   Overcast
2:30 PM 25.7 °F 14.6 °F 22.5 °F 88% 29.72 in 5.0 mi WNW 12.7 mph 17.3 mph N/A   Overcast
2:51 PM 25.3 °F 13.1 °F 22.3 °F 88% 29.72 in 5.0 mi NW 15.0 mph - N/A   Overcast
3:10 PM 25.0 °F 11.3 °F 21.9 °F 88% 29.72 in 7.0 mi WNW 18.4 mph 21.9 mph N/A   Overcast
3:31 PM 24.6 °F 10.5 °F 21.9 °F 89% 29.74 in 5.0 mi NW 19.6 mph 26.5 mph N/A   Overcast
3:50 PM 24.6 °F 11.7 °F 21.6 °F 88% 29.74 in 7.0 mi NW 16.1 mph 21.9 mph N/A   Overcast
4:11 PM 23.9 °F 12.9 °F 21.0 °F 89% 29.74 in 7.0 mi NW 11.5 mph 21.9 mph N/A   Overcast
4:30 PM 23.2 °F 9.8 °F 20.3 °F 89% 29.75 in 7.0 mi NW 16.1 mph 20.7 mph N/A   Overcast
4:50 PM 23.0 °F 11.7 °F 20.3 °F 89% 29.75 in 7.0 mi NW 11.5 mph 19.6 mph N/A   Overcast
5:11 PM 22.8 °F 8.5 °F 20.1 °F 89% 29.74 in 7.0 mi NW 18.4 mph 25.3 mph N/A   Overcast
5:31 PM 22.8 °F 9.4 °F 20.1 °F 89% 29.76 in 5.0 mi NNW 16.1 mph 21.9 mph N/A   Overcast
5:50 PM 22.8 °F 9.4 °F 20.1 °F 89% 29.76 in 7.0 mi NNW 16.1 mph 25.3 mph N/A   Overcast
6:11 PM 22.1 °F 8.9 °F 19.4 °F 89% 29.78 in 7.0 mi NW 15.0 mph 19.6 mph N/A   Overcast
6:30 PM 22.3 °F 8.2 °F 19.4 °F 89% 29.78 in 7.0 mi NNW 17.3 mph - N/A   Overcast
6:50 PM 22.1 °F 6.4 °F 19.0 °F 88% 29.78 in 7.0 mi NNW 21.9 mph - N/A   Overcast
7:11 PM 22.1 °F 8.0 °F 19.2 °F 89% 29.80 in 7.0 mi NNW 17.3 mph - N/A   Overcast
7:30 PM 22.3 °F 7.4 °F 19.4 °F 89% 29.82 in 7.0 mi NNW 19.6 mph 23.0 mph N/A   Overcast
7:51 PM 22.6 °F 9.2 °F 19.4 °F 87% 29.81 in 7.0 mi NW 16.1 mph 23.0 mph N/A   Overcast
8:11 PM 22.8 °F 9.9 °F 19.6 °F 87% 29.81 in 7.0 mi NNW 15.0 mph 24.2 mph N/A   Overcast
8:30 PM 22.6 °F 8.7 °F 19.8 °F 89% 29.82 in 7.0 mi NW 17.3 mph 21.9 mph N/A   Overcast
8:50 PM 22.6 °F 9.2 °F 19.2 °F 87% 29.82 in 7.0 mi NW 16.1 mph 25.3 mph N/A   Overcast
9:10 PM 22.5 °F 7.6 °F 18.9 °F 86% 29.81 in 10.0 mi NNW 19.6 mph 32.2 mph N/A   Overcast
9:31 PM 23.0 °F 9.2 °F 18.9 °F 84% 29.82 in 10.0 mi NW 17.3 mph 27.6 mph N/A   Overcast
9:50 PM 23.0 °F 10.1 °F 19.2 °F 85% 29.82 in 10.0 mi NW 15.0 mph 24.2 mph N/A   Overcast
10:10 PM 23.0 °F 9.6 °F 18.9 °F 84% 29.83 in 7.0 mi NW 16.1 mph 25.3 mph N/A   Overcast
10:30 PM 22.6 °F 9.2 °F 18.0 °F 82% 29.83 in 10.0 mi NW 16.1 mph 23.0 mph N/A   Overcast
10:51 PM 21.9 °F 6.2 °F 16.3 °F 79% 29.82 in 10.0 mi NNW 21.9 mph 26.5 mph N/A   Overcast
11:11 PM 21.9 °F 5.8 °F 16.5 °F 80% 29.82 in 10.0 mi NNW 23.0 mph 29.9 mph N/A   Overcast
11:30 PM 21.7 °F 5.9 °F 16.7 °F 81% 29.82 in 10.0 mi NNW 21.9 mph 32.2 mph N/A   Overcast
11:51 PM 21.6 °F 7.3 °F 16.7 °F 82% 29.83 in 10.0 mi NNW 17.3 mph 24.2 mph N/A   Overcast